User: anonymous   Login
Location: Unspecified
(0.0000°N, 0.0000°E)
Time: 12:12:50
(UTC+00:00)
Language:

USA 267 - Orbit

View from above orbital plane
View from above orbital plane
View from above satellite
View from above satellite

Ground track
Ground track

The orbit data is extracted from the following two-line orbital elements,

1 41334U 16010A   19110.12852327 0.00000000  00000-0  00000-0 0    08
2 41334 123.0013  10.6762 0005241  51.1023 308.8977 13.41417284    00
Epoch (UTC): 20 April 2019 03:05:04
Eccentricity: 0.0005241
inclination: 123.0013°
perigee height: 1100 km
apogee height: 1108 km
right ascension of ascending node: 10.6762°
argument of perigee: 51.1023°
revolutions per day: 13.41417284
mean anomaly at epoch: 308.8977°
orbit number at epoch: 0

The dashed part of the orbit path shows where the satellite is in the earth's shadow,  

DLR